Radiosonde details



Informationen :

Serial : X3123392
Type : RS41-SGE
Frequency : 404.000MHz
Launchsite : Keflavikurflugvollur
Nearest town : Mosfellsbær, IS (17.6km)

Altitude (Max) : 30147m at 2026-09-02 00:34:34
Speed (Max) : 106km/h at altitude 10270m

Average speed : 38km/h
Average ascent rate : 5m/s
Average descent rate : -20m/s
Ascent rate (Max) : 9.4m/s
Descent rate (Max): -40.1m/s

First frame :
DL9RDZ-2 at 2026-09-01 23:04:10 at altitude 1092m (OG: 1050m)
Last frame :
DL9RDZ-1 at 2026-09-02 00:59:14 at altitude 1865m (OG: 1823m)

Flighttime : 1h55m4s
Ascent time : 1h30m24s
Descent time : 24m40s
Uptime : -
Killtimer : 8h06m

Distance (Straight line distance): 67km

Distance (Route):


Frames : 539


Measurement :

Temperature : -1.6°C
Humidity : 51.8%
Pressure : 0hPa


Vertical profile (SkewT) :


Elevation profile :



Receiving stations :


Receiver Frames First received Last received
DL9RDZ-1 539 2026-09-01 23:04:10 2026-09-02 00:59:14

Share per receiver :



All frames :


Receiver Date Latitude Longitude Direction Speed Altitude Climb Temperature Humidity Pressure Voltage Killtimer Uptime BKT XDATA
DL9RDZ-12026-09-02 00:59:1464.26174-21.4089051°9km/h1865m-13.3m/s-1.6°C51.8%0hPa0V08:06:0000:00:0000:00:00
DL9RDZ-12026-09-02 00:59:0264.26151-21.4094849°9km/h2015m-12.6m/s-2.4°C47.0%0hPa0V08:06:0000:00:0000:00:00
DL9RDZ-12026-09-02 00:58:5164.26131-21.4098940°11km/h2148m-13.2m/s-3.3°C45.5%0hPa0V08:06:0000:00:0000:00:00
DL9RDZ-12026-09-02 00:58:4164.26111-21.4102430°11km/h2271m-13.3m/s-4.0°C43.1%0hPa0V08:06:0000:00:0000:00:00
DL9RDZ-12026-09-02 00:58:3064.26085-21.4105819°9km/h2402m-12.6m/s-4.9°C39.2%0hPa0V08:06:0000:00:0000:00:00
DL9RDZ-12026-09-02 00:58:2064.26067-21.4107914°7km/h2521m-12.7m/s-5.6°C40.8%0hPa0V08:06:0000:00:0000:00:00
DL9RDZ-12026-09-02 00:58:0964.26051-21.410910km/h2658m-13.1m/s-6.3°C41.4%0hPa0V08:07:0000:00:0000:00:00
DL9RDZ-12026-09-02 00:57:5864.26041-21.41090329°5km/h2790m-11.7m/s-7.4°C40.7%0hPa0V08:07:0000:00:0000:00:00
DL9RDZ-12026-09-02 00:57:4864.26028-21.4109133°5km/h2909m-12.8m/s-8.0°C42.9%0hPa0V08:07:0000:00:0000:00:00
DL9RDZ-12026-09-02 00:57:3864.26013-21.4111155°9km/h3031m-13.2m/s-8.7°C36.0%0hPa0V08:07:0000:00:0000:00:00
DL9RDZ-12026-09-02 00:57:2764.25998-21.4114552°9km/h3164m-14.0m/s-9.6°C38.5%0hPa0V08:07:0000:00:0000:00:00
DL9RDZ-12026-09-02 00:57:1864.25981-21.4117444°9km/h3289m-13.5m/s-10.5°C50.0%0hPa0V08:08:0000:00:0000:00:00
DL9RDZ-12026-09-02 00:57:0664.25963-21.4120137°9km/h3424m-12.4m/s-11.1°C58.4%0hPa0V08:08:0000:00:0000:00:00
DL9RDZ-12026-09-02 00:56:5564.25932-21.4121915km/h3558m-12.6m/s-11.7°C56.7%0hPa0V08:08:0000:00:0000:00:00
DL9RDZ-12026-09-02 00:56:4464.25883-21.41210346°18km/h3693m-12.2m/s-12.2°C47.5%0hPa0V08:08:0000:00:0000:00:00
DL9RDZ-12026-09-02 00:56:3464.25834-21.41190349°18km/h3818m-13.6m/s-12.9°C53.5%0hPa0V08:08:0000:00:0000:00:00
DL9RDZ-12026-09-02 00:56:2364.25776-21.4116822km/h3957m-13.2m/s-13.5°C47.3%0hPa0V08:09:0000:00:0000:00:00
DL9RDZ-12026-09-02 00:56:1364.25708-21.41164357°26km/h4092m-12.9m/s-14.2°C39.7%0hPa0V08:09:0000:00:0000:00:00
DL9RDZ-12026-09-02 00:55:5764.25594-21.4116726km/h4305m-13.5m/s-15.6°C41.8%0hPa0V08:09:0000:00:0000:00:00
DL9RDZ-12026-09-02 00:55:4564.25529-21.4116927km/h4428m-11.9m/s-16.3°C42.9%0hPa0V08:09:0000:00:0000:00:00
DL9RDZ-12026-09-02 00:55:3464.25451-21.4119415°29km/h4560m-13.3m/s-16.9°C47.9%0hPa0V08:10:0000:00:0000:00:00
DL9RDZ-12026-09-02 00:55:2564.25379-21.4123920°27km/h4683m-13.2m/s-17.4°C46.8%0hPa0V08:10:0000:00:0000:00:00
DL9RDZ-12026-09-02 00:55:1364.25301-21.4130927°31km/h4822m-14.0m/s-18.4°C49.9%0hPa0V08:10:0000:00:0000:00:00
DL9RDZ-12026-09-02 00:55:0364.25233-21.4139434°29km/h4950m-14.1m/s-19.3°C51.3%0hPa0V08:10:0000:00:0000:00:00
DL9RDZ-12026-09-02 00:54:5464.25166-21.4149133°31km/h5082m-14.3m/s-20.2°C56.5%0hPa0V08:10:0000:00:0000:00:00
DL9RDZ-12026-09-02 00:54:4264.25092-21.4161847°31km/h5223m-13.6m/s-21.2°C66.7%0hPa0V08:11:0000:00:0000:00:00
DL9RDZ-12026-09-02 00:54:3264.25038-21.4174041°27km/h5358m-13.9m/s-21.8°C80.0%0hPa0V08:11:0000:00:0000:00:00
DL9RDZ-12026-09-02 00:54:2264.24976-21.4186146°33km/h5509m-14.7m/s-22.7°C80.3%0hPa0V08:11:0000:00:0000:00:00
DL9RDZ-12026-09-02 00:54:1064.24917-21.4198939°27km/h5664m-13.0m/s-24.0°C75.0%0hPa0V08:11:0000:00:0000:00:00
DL9RDZ-12026-09-02 00:53:5964.24850-21.4211342°37km/h5809m-13.8m/s-25.1°C77.4%0hPa0V08:11:0000:00:0000:00:00
DL9RDZ-12026-09-02 00:53:4964.24777-21.4224639°40km/h5948m-14.3m/s-26.2°C73.7%0hPa0V08:12:0000:00:0000:00:00
DL9RDZ-12026-09-02 00:53:3864.24690-21.4239838°40km/h6097m-14.2m/s-27.6°C74.1%0hPa0V08:12:0000:00:0000:00:00
DL9RDZ-12026-09-02 00:53:2964.24607-21.4254234°40km/h6230m-13.3m/s-28.8°C76.3%0hPa0V08:12:0000:00:0000:00:00
DL9RDZ-12026-09-02 00:53:1764.24509-21.4268735°40km/h6382m-13.8m/s-29.8°C74.9%0hPa0V08:12:0000:00:0000:00:00
DL9RDZ-12026-09-02 00:53:0664.24410-21.4284037°44km/h6531m-14.9m/s-30.7°C73.5%0hPa0V08:12:0000:00:0000:00:00
DL9RDZ-12026-09-02 00:52:5564.24316-21.4301839°42km/h6685m-13.6m/s-32.0°C73.2%0hPa0V08:12:0000:00:0000:00:00
DL9RDZ-12026-09-02 00:52:4464.24223-21.4318040°46km/h6835m-13.8m/s-33.3°C72.6%0hPa0V08:12:0000:00:0000:00:00
DL9RDZ-12026-09-02 00:52:3364.24123-21.4336942°47km/h6984m-15.3m/s-34.2°C70.5%0hPa0V08:12:0000:00:0000:00:00
DL9RDZ-12026-09-02 00:52:2264.24019-21.4357446°53km/h7132m-15.2m/s-34.9°C69.8%0hPa0V08:12:0000:00:0000:00:00
DL9RDZ-12026-09-02 00:52:1164.23907-21.4382846°60km/h7284m-14.5m/s-35.5°C72.5%0hPa0V08:13:0000:00:0000:00:00
DL9RDZ-12026-09-02 00:52:0164.23802-21.4410853°62km/h7420m-15.3m/s-36.5°C71.0%0hPa0V08:13:0000:00:0000:00:00
DL9RDZ-12026-09-02 00:51:5064.23697-21.4444157°64km/h7573m-15.4m/s-37.6°C70.4%0hPa0V08:13:0000:00:0000:00:00
DL9RDZ-12026-09-02 00:51:3964.23593-21.4477355°62km/h7733m-15.8m/s-39.0°C68.5%0hPa0V08:13:0000:00:0000:00:00
DL9RDZ-12026-09-02 00:51:2864.23489-21.4510155°62km/h7895m-15.3m/s-40.5°C64.8%0hPa0V08:13:0000:00:0000:00:00
DL9RDZ-12026-09-02 00:51:1764.23390-21.4542756°62km/h8048m-14.9m/s-41.8°C62.4%0hPa0V08:14:0000:00:0000:00:00
DL9RDZ-12026-09-02 00:51:0664.23292-21.4575359°62km/h8202m-14.2m/s-43.0°C62.4%0hPa0V08:14:0000:00:0000:00:00
DL9RDZ-12026-09-02 00:50:5764.23206-21.4604355°60km/h8341m-15.5m/s-44.3°C63.8%0hPa0V08:14:0000:00:0000:00:00
DL9RDZ-12026-09-02 00:50:4564.23107-21.4636454°62km/h8496m-14.6m/s-45.7°C66.4%0hPa0V08:14:0000:00:0000:00:00
DL9RDZ-12026-09-02 00:50:3564.23013-21.4665957°62km/h8633m-13.5m/s-47.0°C70.2%0hPa0V08:14:0000:00:0000:00:00
DL9RDZ-12026-09-02 00:50:1464.22825-21.4727157°58km/h8927m-15.4m/s-49.6°C64.1%0hPa0V08:15:0000:00:0000:00:00
DL9RDZ-12026-09-02 00:50:0364.22732-21.4758057°60km/h9081m-14.7m/s-51.1°C64.8%0hPa0V08:15:0000:00:0000:00:00
DL9RDZ-12026-09-02 00:49:5264.22639-21.4788757°60km/h9239m-16.3m/s-52.5°C63.4%0hPa0V08:15:0000:00:0000:00:00
DL9RDZ-12026-09-02 00:49:4264.22553-21.4816857°60km/h9391m-15.4m/s-53.9°C65.8%0hPa0V08:15:0000:00:0000:00:00
DL9RDZ-12026-09-02 00:49:3164.22459-21.4849058°66km/h9557m-17.3m/s-55.4°C68.2%0hPa0V08:16:0000:00:0000:00:00
DL9RDZ-12026-09-02 00:49:2064.22359-21.4887362°75km/h9735m-17.5m/s-56.1°C67.0%0hPa0V08:16:0000:00:0000:00:00
DL9RDZ-12026-09-02 00:49:0964.22254-21.4930762°82km/h9905m-16.4m/s-56.6°C57.1%0hPa0V08:16:0000:00:0000:00:00
DL9RDZ-12026-09-02 00:48:5964.22147-21.4976365°97km/h10054m-15.9m/s-57.0°C43.8%0hPa0V08:16:0000:00:0000:00:00
DL9RDZ-12026-09-02 00:48:4864.22022-21.5033167°102km/h10237m-17.9m/s-57.1°C31.4%0hPa0V08:17:0000:00:0000:00:00
DL9RDZ-12026-09-02 00:48:3864.21915-21.5088468°102km/h10407m-18.9m/s-57.0°C20.6%0hPa0V08:17:0000:00:0000:00:00
DL9RDZ-12026-09-02 00:48:2764.21819-21.5148172°91km/h10589m-17.4m/s-56.4°C14.3%0hPa0V08:17:0000:00:0000:00:00
DL9RDZ-12026-09-02 00:48:1664.21741-21.5198668°78km/h10768m-16.5m/s-55.2°C10.4%0hPa0V08:17:0000:00:0000:00:00
DL9RDZ-12026-09-02 00:48:0564.21651-21.5245369°78km/h10950m-16.0m/s-54.0°C7.1%0hPa0V08:17:0000:00:0000:00:00
DL9RDZ-12026-09-02 00:47:5464.21582-21.5287772°69km/h11127m-15.3m/s-52.1°C3.9%0hPa0V08:17:0000:00:0000:00:00
DL9RDZ-12026-09-02 00:47:4364.21526-21.5328374°64km/h11304m-19.3m/s-50.5°C2.7%0hPa0V08:17:0000:00:0000:00:00
DL9RDZ-12026-09-02 00:47:3364.21481-21.5361674°60km/h11458m-17.4m/s-49.8°C2.3%0hPa0V08:17:0000:00:0000:00:00
DL9RDZ-12026-09-02 00:47:2364.21430-21.5396876°64km/h11619m-16.4m/s-48.6°C1.7%0hPa0V08:17:0000:00:0000:00:00
DL9RDZ-12026-09-02 00:47:1364.21400-21.5429878°57km/h11781m-14.3m/s-48.3°C1.4%0hPa0V08:17:0000:00:0000:00:00
DL9RDZ-12026-09-02 00:47:0264.21366-21.5463280°51km/h11958m-14.7m/s-47.9°C1.3%0hPa0V08:18:0000:00:0000:00:00
DL9RDZ-12026-09-02 00:46:5264.21331-21.5492570°49km/h12118m-16.8m/s-47.7°C1.2%0hPa0V08:18:0000:00:0000:00:00
DL9RDZ-12026-09-02 00:46:4164.21292-21.5522274°47km/h12290m-15.5m/s-47.0°C1.2%0hPa0V08:18:0000:00:0000:00:00
DL9RDZ-12026-09-02 00:46:3064.21245-21.5551172°49km/h12464m-16.3m/s-47.0°C1.1%0hPa0V08:18:0000:00:0000:00:00
DL9RDZ-12026-09-02 00:46:1964.21203-21.5580073°49km/h12647m-17.9m/s-46.2°C1.0%0hPa0V08:18:0000:00:0000:00:00
DL9RDZ-12026-09-02 00:46:0964.21162-21.5611576°51km/h12830m-18.7m/s-46.0°C1.0%0hPa0V08:19:0000:00:0000:00:00
DL9RDZ-12026-09-02 00:45:5864.21123-21.5641775°51km/h13029m-18.8m/s-46.6°C1.0%0hPa0V08:19:0000:00:0000:00:00
DL9RDZ-12026-09-02 00:45:4664.21077-21.5672769°49km/h13205m-16.2m/s-47.2°C1.1%0hPa0V08:19:0000:00:0000:00:00
DL9RDZ-12026-09-02 00:45:3564.21031-21.5703980°53km/h13393m-19.1m/s-46.6°C1.0%0hPa0V08:19:0000:00:0000:00:00
DL9RDZ-12026-09-02 00:45:2464.20998-21.5733071°44km/h13589m-18.9m/s-47.2°C1.0%0hPa0V08:20:0000:00:0000:00:00
DL9RDZ-12026-09-02 00:45:1364.20944-21.5759666°47km/h13782m-19.4m/s-46.9°C1.0%0hPa0V08:20:0000:00:0000:00:00
DL9RDZ-12026-09-02 00:45:0364.20893-21.5785470°53km/h13954m-19.1m/s-47.3°C1.0%0hPa0V08:20:0000:00:0000:00:00
DL9RDZ-12026-09-02 00:44:5364.20843-21.5813270°53km/h14134m-19.3m/s-46.8°C1.0%0hPa0V08:20:0000:00:0000:00:00
DL9RDZ-12026-09-02 00:44:4264.20793-21.5845372°51km/h14336m-19.1m/s-46.8°C1.0%0hPa0V08:20:0000:00:0000:00:00
DL9RDZ-12026-09-02 00:44:3164.20736-21.5877567°55km/h14532m-18.6m/s-46.1°C0.9%0hPa0V08:21:0000:00:0000:00:00
DL9RDZ-12026-09-02 00:44:2064.20676-21.5913275°60km/h14723m-17.3m/s-47.5°C1.0%0hPa0V08:21:0000:00:0000:00:00
DL9RDZ-12026-09-02 00:43:5964.20624-21.5975786°51km/h15098m-18.7m/s-47.4°C1.0%0hPa0V08:21:0000:00:0000:00:00
DL9RDZ-12026-09-02 00:43:4964.20623-21.6000288°38km/h15291m-20.7m/s-47.2°C1.0%0hPa0V08:21:0000:00:0000:00:00
DL9RDZ-12026-09-02 00:43:3864.20605-21.6024680°42km/h15506m-20.4m/s-47.4°C0.9%0hPa0V08:22:0000:00:0000:00:00
DL9RDZ-12026-09-02 00:43:2764.20575-21.6050875°40km/h15709m-19.5m/s-47.9°C1.0%0hPa0V08:22:0000:00:0000:00:00
DL9RDZ-12026-09-02 00:43:1664.20547-21.6077682°47km/h15917m-20.6m/s-47.6°C0.9%0hPa0V08:22:0000:00:0000:00:00
DL9RDZ-12026-09-02 00:43:0564.20533-21.6106985°42km/h16139m-22.4m/s-47.8°C0.9%0hPa0V08:22:0000:00:0000:00:00
DL9RDZ-12026-09-02 00:42:5564.20510-21.6130371°44km/h16348m-22.1m/s-46.9°C0.9%0hPa0V08:22:0000:00:0000:00:00
DL9RDZ-12026-09-02 00:42:4464.20471-21.6155472°38km/h16573m-21.2m/s-47.0°C0.9%0hPa0V08:23:0000:00:0000:00:00
DL9RDZ-12026-09-02 00:42:3364.20439-21.6178684°35km/h16795m-20.0m/s-46.1°C0.8%0hPa0V08:23:0000:00:0000:00:00
DL9RDZ-12026-09-02 00:42:2364.20431-21.6196972°27km/h17020m-20.2m/s-45.6°C0.8%0hPa0V08:23:0000:00:0000:00:00
DL9RDZ-12026-09-02 00:42:1364.20395-21.6215172°42km/h17233m-20.6m/s-46.4°C0.8%0hPa0V08:23:0000:00:0000:00:00
DL9RDZ-12026-09-02 00:41:5064.20343-21.6257374°42km/h17751m-25.2m/s-46.4°C0.8%0hPa0V08:23:0000:00:0000:00:00
DL9RDZ-12026-09-02 00:41:3964.20325-21.6283093°38km/h18003m-25.0m/s-46.9°C0.8%0hPa0V08:23:0000:00:0000:00:00
DL9RDZ-12026-09-02 00:41:2964.20319-21.6298875°22km/h18223m-22.9m/s-47.0°C0.8%0hPa0V08:23:0000:00:0000:00:00
DL9RDZ-12026-09-02 00:41:1864.20298-21.6316787°33km/h18474m-23.5m/s-47.1°C0.8%0hPa0V08:23:0000:00:0000:00:00
DL9RDZ-12026-09-02 00:41:0864.20290-21.6334781°27km/h18705m-26.4m/s-47.2°C0.8%0hPa0V08:24:0000:00:0000:00:00
DL9RDZ-12026-09-02 00:40:5764.20262-21.6348653°26km/h18972m-25.1m/s-47.4°C0.8%0hPa0V08:24:0000:00:0000:00:00
DL9RDZ-12026-09-02 00:40:4764.20224-21.6362363°31km/h19208m-24.0m/s-47.5°C0.8%0hPa0V08:24:0000:00:0000:00:00
DL9RDZ-12026-09-02 00:40:3664.20182-21.6374435°22km/h19484m-23.4m/s-47.8°C0.9%0hPa0V08:24:0000:00:0000:00:00
DL9RDZ-12026-09-02 00:40:2564.20110-21.6387749°38km/h19746m-26.2m/s-48.0°C0.9%0hPa0V08:24:0000:00:0000:00:00
DL9RDZ-12026-09-02 00:40:1564.20056-21.6406067°37km/h20015m-29.1m/s-48.2°C0.8%0hPa0V08:25:0000:00:0000:00:00
DL9RDZ-12026-09-02 00:40:0464.20038-21.64286100°31km/h20309m-27.3m/s-47.9°C0.8%0hPa0V08:25:0000:00:0000:00:00
DL9RDZ-12026-09-02 00:39:5364.20044-21.6443476°20km/h20599m-28.4m/s-48.1°C0.8%0hPa0V08:25:0000:00:0000:00:00
DL9RDZ-12026-09-02 00:39:4264.20012-21.6459375°35km/h20893m-29.5m/s-48.6°C0.9%0hPa0V08:25:0000:00:0000:00:00
DL9RDZ-12026-09-02 00:39:3264.19991-21.6479075°31km/h21170m-26.8m/s-47.9°C0.8%0hPa0V08:25:0000:00:0000:00:00
DL9RDZ-12026-09-02 00:39:2164.19965-21.6496771°29km/h21488m-28.3m/s-48.6°C0.8%0hPa0V08:26:0000:00:0000:00:00
DL9RDZ-12026-09-02 00:39:1164.19951-21.6512892°24km/h21760m-28.8m/s-48.7°C0.8%0hPa0V08:26:0000:00:0000:00:00
DL9RDZ-12026-09-02 00:39:0064.19941-21.6524957°24km/h22065m-28.0m/s-47.9°C0.8%0hPa0V08:26:0000:00:0000:00:00
DL9RDZ-12026-09-02 00:38:5064.19901-21.6539073°33km/h22340m-28.4m/s-48.6°C0.8%0hPa0V08:26:0000:00:0000:00:00
DL9RDZ-12026-09-02 00:38:3964.19893-21.6557393°27km/h22660m-27.9m/s-48.1°C0.8%0hPa0V08:26:0000:00:0000:00:00
DL9RDZ-12026-09-02 00:38:2864.19882-21.6571866°18km/h22981m-32.2m/s-47.2°C0.8%0hPa0V08:27:0000:00:0000:00:00
DL9RDZ-12026-09-02 00:38:1764.19847-21.6582756°26km/h23307m-26.5m/s-46.4°C0.7%0hPa0V08:27:0000:00:0000:00:00
DL9RDZ-12026-09-02 00:38:0764.19807-21.6594450°26km/h23590m-32.0m/s-46.3°C0.7%0hPa0V08:27:0000:00:0000:00:00
DL9RDZ-12026-09-02 00:37:5764.19759-21.6607353°35km/h23894m-26.3m/s-47.0°C0.7%0hPa0V08:27:0000:00:0000:00:00
DL9RDZ-12026-09-02 00:37:4764.19698-21.6622854°35km/h24190m-31.5m/s-47.3°C0.7%0hPa0V08:27:0000:00:0000:00:00
DL9RDZ-12026-09-02 00:37:3664.19646-21.6638656°29km/h24541m-33.8m/s-47.1°C0.7%0hPa0V08:28:0000:00:0000:00:00
DL9RDZ-12026-09-02 00:37:2564.19610-21.6654069°20km/h24931m-36.4m/s-46.7°C0.7%0hPa0V08:28:0000:00:0000:00:00
DL9RDZ-12026-09-02 00:37:1464.19580-21.6657914°16km/h25290m-34.4m/s-45.7°C0.6%0hPa0V08:28:0000:00:0000:00:00
DL9RDZ-12026-09-02 00:37:0464.19539-21.6666356°27km/h25622m-32.6m/s-47.0°C0.7%0hPa0V08:28:0000:00:0000:00:00
DL9RDZ-12026-09-02 00:36:5364.19526-21.66829100°27km/h25970m-30.1m/s-47.7°C0.7%0hPa0V08:29:0000:00:0000:00:00
DL9RDZ-12026-09-02 00:36:4264.19510-21.6689124km/h26275m-24.8m/s-47.7°C0.8%0hPa0V08:29:0000:00:0000:00:00
DL9RDZ-12026-09-02 00:36:3364.19472-21.6699898°31km/h26547m-27.1m/s-46.3°C0.7%0hPa0V08:29:0000:00:0000:00:00
DL9RDZ-12026-09-02 00:36:2264.19506-21.67131126°18km/h26850m-33.8m/s-46.3°C0.7%0hPa0V08:29:0000:00:0000:00:00
DL9RDZ-12026-09-02 00:36:1164.19515-21.6718078°5km/h27199m-35.6m/s-47.2°C0.7%0hPa0V08:29:0000:00:0000:00:00
DL9RDZ-12026-09-02 00:36:0064.19505-21.6718816°13km/h27543m-35.4m/s-47.2°C0.8%0hPa0V00:00:0000:00:0000:00:00
DL9RDZ-12026-09-02 00:35:5064.19480-21.6724577°15km/h27872m-40.1m/s-46.8°C0.7%0hPa0V00:00:0000:00:0000:00:00
DL9RDZ-12026-09-02 00:35:3964.19475-21.6729977°7km/h28236m-33.1m/s-46.1°C0.7%0hPa0V00:00:0000:00:0000:00:00
DL9RDZ-12026-09-02 00:35:2964.19470-21.67327330°9km/h28575m-32.3m/s-45.3°C0.6%0hPa0V00:00:0000:00:0000:00:00
DL9RDZ-12026-09-02 00:34:3464.19201-21.6719535km/h30147m5.0m/s-45.2°C0.6%0hPa0V00:00:0000:00:0000:00:00
DL9RDZ-12026-09-02 00:34:2264.19125-21.67179356°24km/h30072m7.0m/s-45.3°C0.6%0hPa0V00:00:0000:00:0000:00:00
DL9RDZ-12026-09-02 00:34:1164.19058-21.67162336°15km/h30003m6.8m/s-45.5°C0.6%0hPa0V00:00:0000:00:0000:00:00
DL9RDZ-12026-09-02 00:34:0064.19017-21.67154340°22km/h29931m5.8m/s-45.5°C0.6%0hPa0V00:00:0000:00:0000:00:00
DL9RDZ-12026-09-02 00:33:4764.18980-21.6717040°15km/h29848m7.1m/s-45.3°C0.6%0hPa0V00:00:0000:00:0000:00:00
DL9RDZ-12026-09-02 00:33:3764.18937-21.6714233°22km/h29776m6.4m/s-45.4°C0.6%0hPa0V00:00:0000:00:0000:00:00
DL9RDZ-12026-09-02 00:33:2564.18871-21.67138351°27km/h29709m6.4m/s-45.5°C0.7%0hPa0V00:00:0000:00:0000:00:00
DL9RDZ-12026-09-02 00:33:1564.18819-21.67113313°22km/h29647m5.1m/s-45.6°C0.6%0hPa0V00:00:0000:00:0000:00:00
DL9RDZ-12026-09-02 00:33:0664.18754-21.67075352°24km/h29583m5.8m/s-45.4°C0.6%0hPa0V00:00:0000:00:0000:00:00
DL9RDZ-12026-09-02 00:32:5364.18674-21.66956340°33km/h29509m6.9m/s-45.4°C0.6%0hPa0V00:00:0000:00:0000:00:00
DL9RDZ-12026-09-02 00:32:4164.18575-21.66810324°31km/h29436m6.3m/s-45.4°C0.7%0hPa0V00:00:0000:00:0000:00:00
DL9RDZ-12026-09-02 00:32:2964.18513-21.66712327°29km/h29362m5.7m/s-45.0°C0.6%0hPa0V00:00:0000:00:0000:00:00
DL9RDZ-12026-09-02 00:32:1764.18471-21.66627300°15km/h29289m6.6m/s-44.7°C0.6%0hPa0V00:00:0000:00:0000:00:00
DL9RDZ-12026-09-02 00:32:0664.18439-21.66578360°7km/h29222m6.8m/s-44.7°C0.6%0hPa0V00:00:0000:00:0000:00:00
DL9RDZ-12026-09-02 00:31:5364.18424-21.6658055°9km/h29143m6.9m/s-45.2°C0.6%0hPa0V00:00:0000:00:0000:00:00
DL9RDZ-12026-09-02 00:31:4364.18419-21.66606346°11km/h29082m5.6m/s-45.4°C0.6%0hPa0V00:00:0000:00:0000:00:00
DL9RDZ-12026-09-02 00:31:3264.18402-21.6663161°16km/h29015m5.8m/s-45.8°C0.7%0hPa0V00:00:0000:00:0000:00:00
DL9RDZ-12026-09-02 00:31:2164.18368-21.6663077°11km/h28942m5.8m/s-45.8°C0.7%0hPa0V00:00:0000:00:0000:00:00
DL9RDZ-12026-09-02 00:31:0764.18321-21.666289km/h28863m7.0m/s-45.9°C0.7%0hPa0V00:00:0000:00:0000:00:00
DL9RDZ-12026-09-02 00:30:5564.18274-21.66573302°26km/h28791m5.4m/s-46.3°C0.7%0hPa0V00:00:0000:00:0000:00:00
DL9RDZ-12026-09-02 00:30:4464.18249-21.66520322°18km/h28720m6.1m/s-45.9°C0.7%0hPa0V00:00:0000:00:0000:00:00
DL9RDZ-12026-09-02 00:30:2364.18234-21.6647690°5km/h28589m7.7m/s-46.0°C0.6%0hPa0V00:00:0000:00:0000:00:00
DL9RDZ-12026-09-02 00:30:1364.18244-21.6656762°16km/h28517m6.3m/s-46.1°C0.7%0hPa0V00:00:0000:00:0000:00:00
DL9RDZ-12026-09-02 00:30:0064.18241-21.6665889°20km/h28442m7.4m/s-46.3°C0.7%0hPa0V00:00:0000:00:0000:00:00
DL9RDZ-12026-09-02 00:29:4864.18225-21.66712347°5km/h28367m5.5m/s-46.4°C0.7%0hPa0V00:00:0000:00:0000:00:00
DL9RDZ-12026-09-02 00:29:3864.18214-21.6675171°7km/h28303m5.2m/s-46.6°C0.7%0hPa0V00:00:0000:00:0000:00:00
DL9RDZ-12026-09-02 00:29:2864.18219-21.66782104°13km/h28240m7.5m/s-46.8°C0.7%0hPa0V00:00:0000:00:0000:00:00
DL9RDZ-12026-09-02 00:29:1664.18217-21.66867105°16km/h28165m6.0m/s-47.0°C0.7%0hPa0V00:00:0000:00:0000:00:00
DL9RDZ-12026-09-02 00:29:0464.18219-21.66942131°16km/h28090m7.5m/s-47.3°C0.7%0hPa0V00:00:0000:00:0000:00:00
DL9RDZ-12026-09-02 00:28:5364.18218-21.6703183°18km/h28020m5.7m/s-47.2°C0.7%0hPa0V00:00:0000:00:0000:00:00
DL9RDZ-12026-09-02 00:28:4264.18215-21.6713453°13km/h27953m5.7m/s-47.2°C0.7%0hPa0V00:00:0000:00:0000:00:00
DL9RDZ-12026-09-02 00:28:3264.18205-21.6722593°22km/h27891m5.8m/s-47.4°C0.7%0hPa0V00:00:0000:00:0000:00:00
DL9RDZ-12026-09-02 00:28:2064.18173-21.6734251°27km/h27818m4.7m/s-47.1°C0.7%0hPa0V00:00:0000:00:0000:00:00
DL9RDZ-12026-09-02 00:28:0664.18128-21.6744031°20km/h27731m7.0m/s-46.8°C0.7%0hPa0V00:00:0000:00:0000:00:00
DL9RDZ-12026-09-02 00:27:5464.18088-21.6748929°18km/h27658m5.5m/s-46.8°C0.7%0hPa0V00:00:0000:00:0000:00:00
DL9RDZ-12026-09-02 00:27:4064.18061-21.6751865°5km/h27573m6.8m/s-47.6°C0.7%0hPa0V00:00:0000:00:0000:00:00
DL9RDZ-12026-09-02 00:27:2764.18047-21.67557127°5km/h27495m6.6m/s-47.7°C0.7%0hPa0V00:00:0000:00:0000:00:00
DL9RDZ-12026-09-02 00:27:1764.18051-21.6759189°4km/h27437m6.2m/s-47.8°C0.8%0hPa0V00:00:0000:00:0000:00:00
DL9RDZ-12026-09-02 00:27:0664.18045-21.6764055°9km/h27372m6.1m/s-47.7°C0.8%0hPa0V00:00:0000:00:0000:00:00
DL9RDZ-12026-09-02 00:26:5664.18043-21.67684117°11km/h27306m5.1m/s-47.5°C0.7%0hPa0V00:00:0000:00:0000:00:00
DL9RDZ-12026-09-02 00:26:4264.18047-21.67744138°13km/h27230m6.3m/s-47.3°C0.7%0hPa0V00:00:0000:00:0000:00:00
DL9RDZ-12026-09-02 00:26:3164.18051-21.6781368°9km/h27164m5.9m/s-47.3°C0.7%0hPa0V00:00:0000:00:0000:00:00
DL9RDZ-12026-09-02 00:26:2164.18062-21.67872113°13km/h27104m5.3m/s-47.2°C0.7%0hPa0V00:00:0000:00:0000:00:00
DL9RDZ-12026-09-02 00:26:1064.18055-21.67950125°11km/h27039m6.6m/s-47.2°C0.7%0hPa0V00:00:0000:00:0000:00:00
DL9RDZ-12026-09-02 00:25:5964.18076-21.68045143°15km/h26973m5.1m/s-46.9°C0.7%0hPa0V00:00:0000:00:0000:00:00
DL9RDZ-12026-09-02 00:25:4764.18118-21.68168128°24km/h26899m5.8m/s-46.6°C0.8%0hPa0V00:00:0000:00:0000:00:00
DL9RDZ-12026-09-02 00:25:3564.18155-21.68319122°33km/h26826m6.5m/s-46.3°C0.7%0hPa0V00:00:0000:00:0000:00:00
DL9RDZ-12026-09-02 00:25:2464.18188-21.68501116°37km/h26760m5.0m/s-46.0°C0.7%0hPa0V00:00:0000:00:0000:00:00
DL9RDZ-12026-09-02 00:25:1564.18208-21.6869090°24km/h26700m5.8m/s-45.9°C0.6%0hPa0V00:00:0000:00:0000:00:00
DL9RDZ-12026-09-02 00:25:0164.18211-21.6892261°33km/h26620m5.5m/s-46.5°C0.7%0hPa0V00:00:0000:00:0000:00:00
DL9RDZ-12026-09-02 00:24:5064.18186-21.6908654°35km/h26553m6.4m/s-47.0°C0.7%0hPa0V00:00:0000:00:0000:00:00
DL9RDZ-12026-09-02 00:24:3864.18117-21.6924039°26km/h26481m7.0m/s-47.4°C0.7%0hPa0V00:00:0000:00:0000:00:00
DL9RDZ-12026-09-02 00:24:2864.18048-21.6928331km/h26421m6.9m/s-47.5°C0.8%0hPa0V00:00:0000:00:0000:00:00
DL9RDZ-12026-09-02 00:24:1764.17969-21.6929629km/h26353m5.6m/s-47.7°C0.8%0hPa0V00:00:0000:00:0000:00:00
DL9RDZ-12026-09-02 00:24:0764.17923-21.69303339°9km/h26294m4.9m/s-47.8°C0.8%0hPa0V00:00:0000:00:0000:00:00
DL9RDZ-12026-09-02 00:23:5464.17891-21.69325105°7km/h26217m5.5m/s-47.8°C0.8%0hPa0V00:00:0000:00:0000:00:00
DL9RDZ-12026-09-02 00:23:4364.17886-21.69383115°20km/h26149m5.6m/s-47.7°C0.8%0hPa0V00:00:0000:00:0000:00:00
DL9RDZ-12026-09-02 00:23:3064.17896-21.69519114°27km/h26070m6.7m/s-48.1°C0.8%0hPa0V00:00:0000:00:0000:00:00
DL9RDZ-12026-09-02 00:23:1964.17905-21.6969987°24km/h26003m5.5m/s-47.9°C0.8%0hPa0V00:00:0000:00:0000:00:00
DL9RDZ-12026-09-02 00:23:0964.17893-21.6987979°29km/h25937m6.4m/s-47.7°C0.8%0hPa0V00:00:0000:00:0000:00:00
DL9RDZ-12026-09-02 00:22:5764.17885-21.7001567°33km/h25871m5.9m/s-47.5°C0.8%0hPa0V00:00:0000:00:0000:00:00
DL9RDZ-12026-09-02 00:22:4664.17853-21.7017765°15km/h25807m6.6m/s-47.5°C0.8%0hPa0V00:00:0000:00:0000:00:00
DL9RDZ-12026-09-02 00:22:3364.17801-21.7034750°29km/h25731m5.4m/s-47.5°C0.8%0hPa0V00:00:0000:00:0000:00:00
DL9RDZ-12026-09-02 00:22:2364.17744-21.7051253°35km/h25668m7.1m/s-47.2°C0.8%0hPa0V00:00:0000:00:0000:00:00
DL9RDZ-12026-09-02 00:22:0064.17617-21.7073831°26km/h25529m5.4m/s-46.3°C0.8%0hPa0V00:00:0000:00:0000:00:00
DL9RDZ-12026-09-02 00:21:4364.17522-21.7083826km/h25427m5.6m/s-45.9°C0.8%0hPa0V00:00:0000:00:0000:00:00
DL9RDZ-12026-09-02 00:21:3364.17471-21.7084813°24km/h25366m5.2m/s-45.8°C0.7%0hPa0V00:00:0000:00:0000:00:00
DL9RDZ-12026-09-02 00:21:2264.17428-21.70856359°15km/h25301m6.8m/s-45.5°C0.7%0hPa0V00:00:0000:00:0000:00:00
DL9RDZ-12026-09-02 00:21:1164.17396-21.70828297°15km/h25237m4.5m/s-45.6°C0.7%0hPa0V00:00:0000:00:0000:00:00
DL9RDZ-12026-09-02 00:20:5664.17369-21.70812360°13km/h25150m5.0m/s-45.3°C0.7%0hPa0V00:00:0000:00:0000:00:00
DL9RDZ-12026-09-02 00:20:4164.17336-21.7087865°9km/h25065m6.1m/s-46.0°C0.7%0hPa0V00:00:0000:00:0000:00:00
DL9RDZ-12026-09-02 00:20:3064.17326-21.7101457°24km/h24999m5.6m/s-46.1°C0.7%0hPa0V00:00:0000:00:0000:00:00
DL9RDZ-12026-09-02 00:20:1964.17307-21.7113679°29km/h24931m5.4m/s-46.4°C0.7%0hPa0V00:00:0000:00:0000:00:00
DL9RDZ-12026-09-02 00:20:0864.17274-21.7131261°33km/h24863m5.2m/s-46.5°C0.7%0hPa0V00:00:0000:00:0000:00:00
DL9RDZ-12026-09-02 00:19:5764.17239-21.7149962°27km/h24796m5.0m/s-46.9°C0.8%0hPa0V00:00:0000:00:0000:00:00
DL9RDZ-12026-09-02 00:19:4664.17206-21.7168647°26km/h24725m5.5m/s-46.7°C0.8%0hPa0V00:00:0000:00:0000:00:00
DL9RDZ-12026-09-02 00:19:3264.17147-21.7187850°27km/h24647m6.7m/s-46.9°C0.8%0hPa0V00:00:0000:00:0000:00:00
DL9RDZ-12026-09-02 00:19:2164.17096-21.7201446°29km/h24581m5.9m/s-46.9°C0.8%0hPa0V00:00:0000:00:0000:00:00
DL9RDZ-12026-09-02 00:19:1064.17065-21.7215772°35km/h24513m5.0m/s-47.2°C0.8%0hPa0V00:00:0000:00:0000:00:00
DL9RDZ-12026-09-02 00:18:5964.17026-21.7233856°29km/h24447m6.1m/s-47.0°C0.8%0hPa0V00:00:0000:00:0000:00:00
DL9RDZ-12026-09-02 00:18:4864.16980-21.7251861°31km/h24383m5.8m/s-47.1°C0.8%0hPa0V00:00:0000:00:0000:00:00
DL9RDZ-12026-09-02 00:18:3764.16917-21.7264853°33km/h24318m5.4m/s-47.2°C0.8%0hPa0V00:00:0000:00:0000:00:00
DL9RDZ-12026-09-02 00:18:2564.16861-21.7279746°35km/h24249m5.9m/s-47.3°C0.8%0hPa0V00:00:0000:00:0000:00:00
DL9RDZ-12026-09-02 00:18:1264.16797-21.7300343°31km/h24174m6.5m/s-47.5°C0.8%0hPa0V00:00:0000:00:0000:00:00
DL9RDZ-12026-09-02 00:18:0264.16736-21.7317349°38km/h24116m6.3m/s-47.6°C0.8%0hPa0V00:00:0000:00:0000:00:00
DL9RDZ-12026-09-02 00:17:5164.16654-21.7334750°42km/h24055m4.5m/s-47.7°C0.8%0hPa0V00:00:0000:00:0000:00:00
DL9RDZ-12026-09-02 00:17:4164.16600-21.7350453°35km/h23999m5.8m/s-47.5°C0.8%0hPa0V00:00:0000:00:0000:00:00
DL9RDZ-12026-09-02 00:17:3064.16551-21.7367562°27km/h23935m6.0m/s-47.2°C0.8%0hPa0V00:00:0000:00:0000:00:00
DL9RDZ-12026-09-02 00:17:1864.16497-21.7384474°26km/h23868m6.3m/s-47.2°C0.8%0hPa0V00:00:0000:00:0000:00:00
DL9RDZ-12026-09-02 00:17:0564.16456-21.7401554°31km/h23796m4.8m/s-47.3°C0.8%0hPa0V00:00:0000:00:0000:00:00
DL9RDZ-12026-09-02 00:16:5264.16404-21.7415940°29km/h23724m6.1m/s-47.1°C0.8%0hPa0V00:00:0000:00:0000:00:00
DL9RDZ-12026-09-02 00:16:3964.16356-21.7429352°26km/h23651m5.1m/s-47.0°C0.8%0hPa0V00:00:0000:00:0000:00:00
DL9RDZ-12026-09-02 00:16:2664.16326-21.7443655°20km/h23578m5.8m/s-47.0°C0.8%0hPa0V00:00:0000:00:0000:00:00
DL9RDZ-12026-09-02 00:16:1564.16305-21.7459969°27km/h23510m6.8m/s-47.2°C0.8%0hPa0V00:00:0000:00:0000:00:00
DL9RDZ-12026-09-02 00:16:0264.16258-21.7476666°24km/h23442m6.4m/s-47.1°C0.8%0hPa0V00:00:0000:00:0000:00:00
DL9RDZ-12026-09-02 00:15:4864.16221-21.7493062°16km/h23364m5.6m/s-47.2°C0.8%0hPa0V00:00:0000:00:0000:00:00
DL9RDZ-12026-09-02 00:15:3764.16190-21.7503748°15km/h23299m5.0m/s-47.4°C0.8%0hPa0V00:00:0000:00:0000:00:00
DL9RDZ-12026-09-02 00:15:2564.16156-21.7515534°24km/h23231m5.8m/s-47.5°C0.8%0hPa0V00:00:0000:00:0000:00:00
DL9RDZ-12026-09-02 00:15:1364.16129-21.7524542°20km/h23160m4.8m/s-47.7°C0.8%0hPa0V00:00:0000:00:0000:00:00
DL9RDZ-12026-09-02 00:15:0364.16122-21.75356105°20km/h23100m5.9m/s-47.8°C0.9%0hPa0V00:00:0000:00:0000:00:00
DL9RDZ-12026-09-02 00:14:5264.16108-21.7548581°22km/h23034m7.1m/s-47.9°C0.9%0hPa0V00:00:0000:00:0000:00:00
DL9RDZ-12026-09-02 00:14:4064.16096-21.7564372°27km/h22962m6.8m/s-47.6°C0.8%0hPa0V00:00:0000:00:0000:00:00
DL9RDZ-12026-09-02 00:14:2964.16075-21.7581480°27km/h22896m5.8m/s-47.6°C0.8%0hPa0V00:00:0000:00:0000:00:00
DL9RDZ-12026-09-02 00:14:1964.16056-21.7597066°27km/h22837m5.3m/s-47.7°C0.8%0hPa0V00:00:0000:00:0000:00:00
DL9RDZ-12026-09-02 00:14:0764.16040-21.7613867°18km/h22766m5.4m/s-47.9°C0.9%0hPa0V00:00:0000:00:0000:00:00
DL9RDZ-12026-09-02 00:13:5664.16041-21.76308100°22km/h22698m6.7m/s-48.2°C0.9%0hPa0V00:00:0000:00:0000:00:00
DL9RDZ-12026-09-02 00:13:4564.16052-21.7646388°29km/h22636m5.4m/s-48.4°C0.9%0hPa0V00:00:0000:00:0000:00:00
DL9RDZ-12026-09-02 00:13:2364.16045-21.7683076°26km/h22510m6.0m/s-48.8°C0.9%0hPa0V00:00:0000:00:0000:00:00
DL9RDZ-12026-09-02 00:13:1364.16020-21.7697759°31km/h22452m6.5m/s-48.7°C0.9%0hPa0V00:00:0000:00:0000:00:00
DL9RDZ-12026-09-02 00:13:0264.15976-21.7718653°42km/h22390m5.1m/s-48.8°C0.9%0hPa0V00:00:0000:00:0000:00:00
DL9RDZ-12026-09-02 00:12:5064.15912-21.7739050°31km/h22321m5.8m/s-48.6°C0.9%0hPa0V00:00:0000:00:0000:00:00
DL9RDZ-12026-09-02 00:12:3964.15868-21.7754356°31km/h22262m6.2m/s-48.7°C0.9%0hPa0V00:00:0000:00:0000:00:00
DL9RDZ-12026-09-02 00:12:2864.15806-21.7767339°26km/h22202m6.0m/s-48.6°C0.9%0hPa0V00:00:0000:00:0000:00:00
DL9RDZ-12026-09-02 00:12:1764.15762-21.7779256°27km/h22142m6.7m/s-48.4°C0.9%0hPa0V00:00:0000:00:0000:00:00
DL9RDZ-12026-09-02 00:12:0164.15735-21.7796482°22km/h22056m5.2m/s-48.8°C0.9%0hPa0V00:00:0000:00:0000:00:00
DL9RDZ-12026-09-02 00:11:5164.15732-21.78082100°18km/h22002m6.5m/s-49.5°C1.0%0hPa0V00:00:0000:00:0000:00:00
DL9RDZ-12026-09-02 00:11:4064.15742-21.7819397°20km/h21943m5.1m/s-49.8°C1.0%0hPa0V00:00:0000:00:0000:00:00
DL9RDZ-12026-09-02 00:11:2264.15738-21.7846486°33km/h21845m5.7m/s-49.6°C1.0%0hPa0V00:00:0000:00:0000:00:00
DL9RDZ-12026-09-02 00:11:1164.15730-21.7865390°27km/h21783m6.4m/s-49.7°C1.0%0hPa0V00:00:0000:00:0000:00:00
DL9RDZ-12026-09-02 00:11:0164.15730-21.7880777°26km/h21726m6.2m/s-49.9°C1.0%0hPa0V00:00:0000:00:0000:00:00
DL9RDZ-12026-09-02 00:10:5064.15722-21.7897674°24km/h21664m6.7m/s-49.8°C1.0%0hPa0V00:00:0000:00:0000:00:00
DL9RDZ-12026-09-02 00:10:3964.15697-21.7914388°31km/h21603m5.3m/s-49.6°C1.0%0hPa0V00:00:0000:00:0000:00:00
DL9RDZ-12026-09-02 00:10:2864.15683-21.7930575°29km/h21543m4.5m/s-49.4°C1.0%0hPa0V00:00:0000:00:0000:00:00
DL9RDZ-12026-09-02 00:10:1764.15661-21.7945270°29km/h21481m5.2m/s-49.3°C1.0%0hPa0V00:00:0000:00:0000:00:00
DL9RDZ-12026-09-02 00:10:0664.15630-21.7960768°29km/h21418m4.8m/s-49.0°C1.0%0hPa0V00:00:0000:00:0000:00:00
DL9RDZ-12026-09-02 00:09:5364.15608-21.7982376°27km/h21346m5.6m/s-48.7°C0.9%0hPa0V00:00:0000:00:0000:00:00
DL9RDZ-12026-09-02 00:09:4264.15578-21.8000076°29km/h21284m5.3m/s-48.6°C0.9%0hPa0V00:00:0000:00:0000:00:00
DL9RDZ-12026-09-02 00:09:3364.15551-21.8017968°27km/h21227m6.7m/s-48.6°C0.9%0hPa0V00:00:0000:00:0000:00:00
DL9RDZ-12026-09-02 00:09:2164.15527-21.8039077°42km/h21168m6.4m/s-48.7°C0.9%0hPa0V00:00:0000:00:0000:00:00
DL9RDZ-12026-09-02 00:09:0864.15491-21.8068172°46km/h21093m6.7m/s-48.9°C1.0%0hPa0V00:00:0000:00:0000:00:00
DL9RDZ-12026-09-02 00:08:5564.15449-21.8097669°49km/h21021m5.2m/s-48.9°C0.9%0hPa0V00:00:0000:00:0000:00:00
DL9RDZ-12026-09-02 00:08:4464.15408-21.8121570°44km/h20960m5.0m/s-48.7°C0.9%0hPa0V00:00:0000:00:0000:00:00
DL9RDZ-12026-09-02 00:08:3364.15367-21.8142156°29km/h20900m5.6m/s-48.9°C0.9%0hPa0V00:00:0000:00:0000:00:00
DL9RDZ-12026-09-02 00:08:2364.15324-21.8158850°29km/h20846m5.7m/s-48.8°C1.0%0hPa0V00:00:0000:00:0000:00:00
DL9RDZ-12026-09-02 00:08:1264.15281-21.8171059°27km/h20785m4.8m/s-48.8°C1.0%0hPa0V00:00:0000:00:0000:00:00
DL9RDZ-12026-09-02 00:08:0164.15249-21.8185962°24km/h20725m5.8m/s-48.7°C1.0%0hPa0V00:00:0000:00:0000:00:00
DL9RDZ-12026-09-02 00:07:5064.15234-21.8198376°16km/h20666m4.6m/s-48.6°C1.0%0hPa0V00:00:0000:00:0000:00:00
DL9RDZ-12026-09-02 00:07:4064.15228-21.8209686°15km/h20611m4.0m/s-48.6°C1.0%0hPa0V00:00:0000:00:0000:00:00
DL9RDZ-12026-09-02 00:07:3064.15243-21.8221992°27km/h20551m4.8m/s-48.6°C1.0%0hPa0V00:00:0000:00:0000:00:00
DL9RDZ-12026-09-02 00:07:1964.15260-21.8239698°27km/h20491m5.0m/s-48.4°C1.0%0hPa0V00:00:0000:00:0000:00:00
DL9RDZ-12026-09-02 00:07:0864.15266-21.82570100°33km/h20438m5.6m/s-48.1°C0.9%0hPa0V00:00:0000:00:0000:00:00
DL9RDZ-12026-09-02 00:06:5964.15274-21.8277686°40km/h20384m5.9m/s-48.0°C0.9%0hPa0V00:00:0000:00:0000:00:00
DL9RDZ-12026-09-02 00:06:4764.15275-21.8299084°42km/h20325m6.4m/s-47.9°C0.9%0hPa0V00:00:0000:00:0000:00:00
DL9RDZ-12026-09-02 00:06:3664.15260-21.8324084°31km/h20264m4.5m/s-48.1°C0.9%0hPa0V00:00:0000:00:0000:00:00
DL9RDZ-12026-09-02 00:06:2564.15229-21.8350762°38km/h20204m5.7m/s-47.9°C0.9%0hPa0V00:00:0000:00:0000:00:00
DL9RDZ-12026-09-02 00:06:1464.15182-21.8372259°40km/h20144m5.0m/s-47.9°C0.9%0hPa0V00:00:0000:00:0000:00:00
DL9RDZ-12026-09-02 00:06:0464.15130-21.8391951°42km/h20083m5.2m/s-47.9°C1.0%0hPa0V00:00:0000:00:0000:00:00
DL9RDZ-12026-09-02 00:05:1164.14819-21.8483237°44km/h19788m6.2m/s-47.6°C1.0%0hPa0V00:00:0000:00:0000:00:00
DL9RDZ-12026-09-02 00:04:3064.14551-21.8529243°27km/h19568m5.6m/s-47.8°C1.0%0hPa0V00:00:0000:00:0000:00:00
DL9RDZ-12026-09-02 00:04:1964.14503-21.8540946°20km/h19509m4.9m/s-47.9°C1.0%0hPa0V00:00:0000:00:0000:00:00
DL9RDZ-12026-09-02 00:04:0764.14444-21.8551552°22km/h19434m5.6m/s-47.5°C0.9%0hPa0V00:00:0000:00:0000:00:00
DL9RDZ-12026-09-02 00:03:5964.14411-21.8561651°27km/h19376m4.7m/s-47.3°C0.9%0hPa0V00:00:0000:00:0000:00:00
DL9RDZ-12026-09-02 00:03:2164.14236-21.8628665°29km/h19132m4.6m/s-47.4°C0.9%0hPa0V00:00:0000:00:0000:00:00
DL9RDZ-12026-09-02 00:03:1364.14203-21.8640759°26km/h19082m5.4m/s-47.4°C1.0%0hPa0V00:00:0000:00:0000:00:00
DL9RDZ-12026-09-02 00:02:1964.14109-21.8694282°15km/h18838m5.8m/s-47.1°C1.0%0hPa0V00:00:0000:00:0000:00:00
DL9RDZ-12026-09-02 00:02:0964.14103-21.8710390°24km/h18782m5.1m/s-47.1°C1.0%0hPa0V00:00:0000:00:0000:00:00
DL9RDZ-12026-09-02 00:01:5864.14097-21.8728292°33km/h18728m5.3m/s-47.2°C1.0%0hPa0V00:00:0000:00:0000:00:00
DL9RDZ-12026-09-02 00:01:3664.14085-21.87702100°27km/h18613m5.5m/s-47.4°C1.0%0hPa0V00:00:0000:00:0000:00:00
DL9RDZ-12026-09-02 00:01:1864.14097-21.8796495°35km/h18539m4.0m/s-47.2°C1.0%0hPa0V00:00:0000:00:0000:00:00
DL9RDZ-12026-09-02 00:01:0064.14096-21.8822986°35km/h18467m4.6m/s-47.1°C1.0%0hPa0V00:00:0000:00:0000:00:00
DL9RDZ-12026-09-02 00:00:5064.14083-21.8839183°33km/h18415m4.3m/s-47.1°C1.0%0hPa0V00:00:0000:00:0000:00:00
DL9RDZ-12026-09-02 00:00:4164.14065-21.8857777°29km/h18354m5.2m/s-47.0°C1.0%0hPa0V00:00:0000:00:0000:00:00
DL9RDZ-12026-09-02 00:00:3264.14049-21.8876588°27km/h18293m5.1m/s-46.9°C1.0%0hPa0V00:00:0000:00:0000:00:00
DL9RDZ-12026-09-02 00:00:2264.14042-21.8890689°20km/h18236m4.8m/s-47.0°C1.0%0hPa0V00:00:0000:00:0000:00:00
DL9RDZ-12026-09-02 00:00:0964.14042-21.89023102°26km/h18189m5.0m/s-47.0°C1.0%0hPa0V00:00:0000:00:0000:00:00
DL9RDZ-12026-09-01 23:59:3364.14042-21.8970098°46km/h18021m4.8m/s-47.0°C1.0%0hPa0V00:00:0000:00:0000:00:00
DL9RDZ-12026-09-01 23:59:2364.14037-21.8995585°44km/h17971m5.0m/s-47.1°C1.0%0hPa0V00:00:0000:00:0000:00:00
DL9RDZ-12026-09-01 23:59:0464.13991-21.9050676°46km/h17870m5.3m/s-47.1°C1.0%0hPa0V00:00:0000:00:0000:00:00
DL9RDZ-12026-09-01 23:58:5364.13956-21.9076678°42km/h17821m4.9m/s-47.0°C0.9%0hPa0V00:00:0000:00:0000:00:00
DL9RDZ-12026-09-01 23:58:2964.13908-21.9126479°35km/h17702m3.9m/s-46.9°C1.0%0hPa0V00:00:0000:00:0000:00:00
DL9RDZ-12026-09-01 23:57:4464.13872-21.9215384°44km/h17472m3.9m/s-47.0°C1.0%0hPa0V00:00:0000:00:0000:00:00
DL9RDZ-12026-09-01 23:57:3464.13847-21.9241182°42km/h17416m5.0m/s-46.8°C1.0%0hPa0V00:00:0000:00:0000:00:00
DL9RDZ-12026-09-01 23:57:2264.13813-21.9267771°46km/h17358m5.1m/s-47.0°C1.0%0hPa0V00:00:0000:00:0000:00:00
DL9RDZ-12026-09-01 23:57:1264.13772-21.9290659°42km/h17309m5.8m/s-47.2°C1.0%0hPa0V00:00:0000:00:0000:00:00
DL9RDZ-12026-09-01 23:56:2564.13579-21.9374078°29km/h17075m5.3m/s-47.2°C1.0%0hPa0V00:00:0000:00:0000:00:00
DL9RDZ-12026-09-01 23:56:1564.13573-21.9392686°37km/h17025m5.0m/s-47.5°C1.0%0hPa0V00:00:0000:00:0000:00:00
DL9RDZ-12026-09-01 23:56:0464.13551-21.9416474°40km/h16968m5.9m/s-47.5°C1.0%0hPa0V00:00:0000:00:0000:00:00
DL9RDZ-12026-09-01 23:55:5464.13513-21.9438761°42km/h16917m6.3m/s-47.7°C1.0%0hPa0V00:00:0000:00:0000:00:00
DL9RDZ-12026-09-01 23:55:3964.13430-21.9467568°42km/h16840m5.1m/s-48.3°C1.1%0hPa0V00:00:0000:00:0000:00:00
DL9RDZ-12026-09-01 23:55:2664.13387-21.9493171°44km/h16773m4.9m/s-48.4°C1.1%0hPa0V00:00:0000:00:0000:00:00
DL9RDZ-12026-09-01 23:55:0064.13297-21.9553177°44km/h16638m4.8m/s-48.1°C1.1%0hPa0V00:00:0000:00:0000:00:00
DL9RDZ-12026-09-01 23:53:2064.12957-21.9767775°42km/h16148m4.9m/s-47.9°C1.1%0hPa0V00:00:0000:00:0000:00:00
DL9RDZ-12026-09-01 23:52:5764.12885-21.9822071°40km/h16031m3.6m/s-47.8°C1.2%0hPa0V00:00:0000:00:0000:00:00
DL9RDZ-12026-09-01 23:49:5664.12339-22.0232084°42km/h15123m5.1m/s-45.0°C1.1%0hPa0V00:00:0000:00:0000:00:00
DL9RDZ-12026-09-01 23:49:1864.12310-22.0332976°55km/h14941m3.9m/s-46.0°C1.1%0hPa0V00:00:0000:00:0000:00:00
DL9RDZ-12026-09-01 23:49:0464.12249-22.0376070°55km/h14873m5.3m/s-45.8°C1.1%0hPa0V00:00:0000:00:0000:00:00
DL9RDZ-12026-09-01 23:48:5364.12200-22.0410778°58km/h14820m3.9m/s-46.1°C1.1%0hPa0V00:00:0000:00:0000:00:00
DL9RDZ-12026-09-01 23:48:4164.12155-22.0447478°51km/h14763m4.9m/s-46.2°C1.1%0hPa0V00:00:0000:00:0000:00:00
DL9RDZ-12026-09-01 23:48:3164.12121-22.0479975°58km/h14712m4.2m/s-46.4°C1.2%0hPa0V00:00:0000:00:0000:00:00
DL9RDZ-12026-09-01 23:48:1864.12080-22.0519979°62km/h14657m5.0m/s-46.3°C1.2%0hPa0V00:00:0000:00:0000:00:00
DL9RDZ-12026-09-01 23:48:0864.12042-22.0553375°60km/h14611m4.8m/s-45.9°C1.1%0hPa0V00:00:0000:00:0000:00:00
DL9RDZ-12026-09-01 23:47:5464.11975-22.0598975°57km/h14545m4.4m/s-45.6°C1.1%0hPa0V00:00:0000:00:0000:00:00
DL9RDZ-12026-09-01 23:47:3364.11861-22.0664068°58km/h14444m4.1m/s-46.4°C1.2%0hPa0V00:00:0000:00:0000:00:00
DL9RDZ-12026-09-01 23:47:2264.11806-22.0695674°55km/h14391m4.9m/s-46.3°C1.2%0hPa0V00:00:0000:00:0000:00:00
DL9RDZ-12026-09-01 23:47:1564.11762-22.0727374°49km/h14341m4.2m/s-46.4°C1.2%0hPa0V00:00:0000:00:0000:00:00
DL9RDZ-12026-09-01 23:46:1664.11544-22.0878774°57km/h14080m5.2m/s-47.3°C1.2%0hPa0V00:00:0000:00:0000:00:00
DL9RDZ-12026-09-01 23:46:0564.11499-22.0906865°44km/h14030m4.8m/s-47.4°C1.2%0hPa0V00:00:0000:00:0000:00:00
DL9RDZ-12026-09-01 23:45:2764.11356-22.1002983°46km/h13855m4.8m/s-47.2°C1.3%0hPa0V00:00:0000:00:0000:00:00
DL9RDZ-12026-09-01 23:45:1264.11304-22.1041572°46km/h13779m5.6m/s-47.2°C1.3%0hPa0V00:00:0000:00:0000:00:00
DL9RDZ-12026-09-01 23:45:0064.11262-22.1066071°42km/h13730m3.7m/s-47.2°C1.3%0hPa0V00:00:0000:00:0000:00:00
DL9RDZ-12026-09-01 23:44:4564.11210-22.1105585°47km/h13659m4.5m/s-47.2°C1.3%0hPa0V00:00:0000:00:0000:00:00
DL9RDZ-12026-09-01 23:44:1664.11154-22.1183677°53km/h13528m5.3m/s-47.3°C1.3%0hPa0V00:00:0000:00:0000:00:00
DL9RDZ-12026-09-01 23:43:5964.11120-22.1232977°51km/h13453m4.1m/s-47.6°C1.4%0hPa0V00:00:0000:00:0000:00:00
DL9RDZ-12026-09-01 23:42:4964.10859-22.1418075°46km/h13131m4.2m/s-47.1°C1.4%0hPa0V00:00:0000:00:0000:00:00
DL9RDZ-12026-09-01 23:42:2864.10795-22.1473477°49km/h13031m4.8m/s-46.9°C1.3%0hPa0V00:00:0000:00:0000:00:00
DL9RDZ-12026-09-01 23:42:1764.10770-22.1502879°51km/h12981m5.1m/s-47.1°C1.4%0hPa0V00:00:0000:00:0000:00:00
DL9RDZ-12026-09-01 23:42:0764.10750-22.1533880°53km/h12932m5.2m/s-47.4°C1.4%0hPa0V00:00:0000:00:0000:00:00
DL9RDZ-12026-09-01 23:41:5364.10712-22.1571273°53km/h12871m3.9m/s-47.4°C1.4%0hPa0V00:00:0000:00:0000:00:00
DL9RDZ-12026-09-01 23:41:4264.10677-22.1602170°46km/h12821m4.8m/s-47.5°C1.4%0hPa0V00:00:0000:00:0000:00:00
DL9RDZ-12026-09-01 23:41:3164.10639-22.1631073°42km/h12768m5.4m/s-47.3°C1.4%0hPa0V00:00:0000:00:0000:00:00
DL9RDZ-12026-09-01 23:41:2164.10612-22.1658781°47km/h12713m4.4m/s-47.4°C1.4%0hPa0V00:00:0000:00:0000:00:00
DL9RDZ-12026-09-01 23:41:0764.10576-22.1692080°47km/h12654m4.1m/s-47.3°C1.4%0hPa0V00:00:0000:00:0000:00:00
DL9RDZ-12026-09-01 23:40:5664.10548-22.1722873°42km/h12598m4.5m/s-47.7°C1.5%0hPa0V00:00:0000:00:0000:00:00
DL9RDZ-12026-09-01 23:40:3564.10471-22.1773472°47km/h12505m5.1m/s-47.6°C1.5%0hPa0V00:00:0000:00:0000:00:00
DL9RDZ-12026-09-01 23:40:2464.10441-22.1800376°47km/h12452m4.0m/s-47.5°C1.5%0hPa0V00:00:0000:00:0000:00:00
DL9RDZ-12026-09-01 23:40:1364.10408-22.1829680°46km/h12400m5.2m/s-47.6°C1.5%0hPa0V00:00:0000:00:0000:00:00
DL9RDZ-12026-09-01 23:40:0364.10390-22.1859987°46km/h12350m4.7m/s-47.5°C1.5%0hPa0V00:00:0000:00:0000:00:00
DL9RDZ-12026-09-01 23:39:5264.10359-22.1890581°49km/h12297m4.0m/s-47.6°C1.5%0hPa0V00:00:0000:00:0000:00:00
DL9RDZ-12026-09-01 23:39:4164.10332-22.1920172°53km/h12246m3.8m/s-47.8°C1.6%0hPa0V00:00:0000:00:0000:00:00
DL9RDZ-12026-09-01 23:39:3164.10288-22.1948173°53km/h12201m4.9m/s-47.8°C1.6%0hPa0V00:00:0000:00:0000:00:00
DL9RDZ-12026-09-01 23:39:2064.10238-22.1975966°46km/h12151m5.0m/s-48.0°C1.7%0hPa0V00:00:0000:00:0000:00:00
DL9RDZ-12026-09-01 23:39:0964.10202-22.2001474°51km/h12107m4.5m/s-47.8°C1.7%0hPa0V00:00:0000:00:0000:00:00
DL9RDZ-12026-09-01 23:38:5864.10154-22.2032873°55km/h12055m3.5m/s-47.8°C1.7%0hPa0V00:00:0000:00:0000:00:00
DL9RDZ-12026-09-01 23:38:4764.10120-22.2066081°57km/h12003m4.0m/s-48.2°C1.8%0hPa0V00:00:0000:00:0000:00:00
DL9RDZ-12026-09-01 23:38:3564.10092-22.2103277°57km/h11949m3.9m/s-47.9°C1.8%0hPa0V00:00:0000:00:0000:00:00
DL9RDZ-12026-09-01 23:38:1064.10027-22.2174874°53km/h11834m3.7m/s-48.1°C2.1%0hPa0V00:00:0000:00:0000:00:00
DL9RDZ-12026-09-01 23:38:0064.10001-22.2203682°55km/h11788m4.4m/s-48.1°C2.3%0hPa0V00:00:0000:00:0000:00:00
DL9RDZ-12026-09-01 23:37:4964.09974-22.2238781°58km/h11735m5.2m/s-48.2°C2.3%0hPa0V00:00:0000:00:0000:00:00
DL9RDZ-12026-09-01 23:37:3964.09941-22.2272680°62km/h11688m4.1m/s-48.5°C2.4%0hPa0V00:00:0000:00:0000:00:00
DL9RDZ-12026-09-01 23:37:2964.09902-22.2308673°66km/h11642m5.6m/s-49.0°C2.5%0hPa0V00:00:0000:00:0000:00:00
DL9RDZ-12026-09-01 23:37:1864.09834-22.2345670°60km/h11589m4.6m/s-49.3°C3.0%0hPa0V00:00:0000:00:0000:00:00
DL9RDZ-12026-09-01 23:37:0864.09778-22.2378068°58km/h11541m3.9m/s-49.7°C3.4%0hPa0V00:00:0000:00:0000:00:00
DL9RDZ-12026-09-01 23:36:5864.09719-22.2413576°58km/h11492m4.0m/s-49.6°C3.7%0hPa0V00:00:0000:00:0000:00:00
DL9RDZ-12026-09-01 23:36:4864.09676-22.2446977°60km/h11447m4.0m/s-50.2°C3.9%0hPa0V00:00:0000:00:0000:00:00
DL9RDZ-12026-09-01 23:36:3764.09646-22.2480778°60km/h11402m3.9m/s-50.3°C3.9%0hPa0V00:00:0000:00:0000:00:00
DL9RDZ-12026-09-01 23:36:2764.09605-22.2514278°58km/h11355m4.4m/s-50.7°C4.0%0hPa0V00:00:0000:00:0000:00:00
DL9RDZ-12026-09-01 23:36:1564.09571-22.2550776°60km/h11308m5.8m/s-51.2°C4.7%0hPa0V00:00:0000:00:0000:00:00
DL9RDZ-12026-09-01 23:36:0464.09517-22.2586768°64km/h11258m4.2m/s-51.3°C5.5%0hPa0V00:00:0000:00:0000:00:00
DL9RDZ-12026-09-01 23:35:5464.09446-22.2625373°66km/h11209m3.9m/s-51.5°C6.7%0hPa0V00:00:0000:00:0000:00:00
DL9RDZ-12026-09-01 23:35:4364.09392-22.2661872°71km/h11168m4.2m/s-52.0°C8.4%0hPa0V00:00:0000:00:0000:00:00
DL9RDZ-12026-09-01 23:35:3264.09339-22.2702971°69km/h11119m4.2m/s-52.4°C9.7%0hPa0V00:00:0000:00:0000:00:00
DL9RDZ-12026-09-01 23:35:2364.09283-22.2739670°64km/h11076m3.6m/s-52.7°C11.6%0hPa0V00:00:0000:00:0000:00:00
DL9RDZ-12026-09-01 23:35:1264.09206-22.2779968°75km/h11026m3.7m/s-53.7°C14.8%0hPa0V00:00:0000:00:0000:00:00
DL9RDZ-12026-09-01 23:35:0064.09119-22.2824966°78km/h10977m3.0m/s-54.7°C17.6%0hPa0V00:00:0000:00:0000:00:00
DL9RDZ-12026-09-01 23:34:5064.09032-22.2863062°73km/h10932m5.7m/s-54.7°C16.7%0hPa0V00:00:0000:00:0000:00:00
DL9RDZ-12026-09-01 23:34:3964.08931-22.2904862°75km/h10883m5.6m/s-55.2°C19.5%0hPa0V00:00:0000:00:0000:00:00
DL9RDZ-12026-09-01 23:34:2964.08842-22.2945964°86km/h10837m3.1m/s-56.0°C21.5%0hPa0V00:00:0000:00:0000:00:00
DL9RDZ-12026-09-01 23:34:1864.08741-22.2992165°80km/h10788m5.3m/s-55.9°C21.1%0hPa0V00:00:0000:00:0000:00:00
DL9RDZ-12026-09-01 23:34:0864.08648-22.3034467°82km/h10745m4.5m/s-55.7°C21.8%0hPa0V00:00:0000:00:0000:00:00
DL9RDZ-12026-09-01 23:33:5864.08566-22.3078469°82km/h10701m3.7m/s-55.5°C22.5%0hPa0V00:00:0000:00:0000:00:00
DL9RDZ-12026-09-01 23:33:4764.08476-22.3128469°88km/h10651m6.3m/s-55.5°C23.6%0hPa0V00:00:0000:00:0000:00:00
DL9RDZ-12026-09-01 23:33:3764.08397-22.3178672°91km/h10603m3.9m/s-55.9°C25.5%0hPa0V00:00:0000:00:0000:00:00
DL9RDZ-12026-09-01 23:33:2764.08310-22.3233671°97km/h10553m4.3m/s-56.4°C28.1%0hPa0V00:00:0000:00:0000:00:00
DL9RDZ-12026-09-01 23:33:1664.08227-22.3283668°88km/h10502m4.7m/s-56.5°C30.6%0hPa0V00:00:0000:00:0000:00:00
DL9RDZ-12026-09-01 23:33:0564.08138-22.3332670°86km/h10450m4.6m/s-56.2°C32.6%0hPa0V00:00:0000:00:0000:00:00
DL9RDZ-12026-09-01 23:32:5464.08054-22.3384266°75km/h10385m4.7m/s-56.1°C36.8%0hPa0V00:00:0000:00:0000:00:00
DL9RDZ-12026-09-01 23:32:4364.07944-22.3439865°100km/h10316m5.4m/s-56.3°C42.3%0hPa0V00:00:0000:00:0000:00:00
DL9RDZ-12026-09-01 23:32:3264.07825-22.3497965°104km/h10270m4.2m/s-56.3°C45.7%0hPa0V00:00:0000:00:0000:00:00
DL9RDZ-12026-09-01 23:32:2164.07703-22.3556368°99km/h10223m5.7m/s-56.2°C51.7%0hPa0V00:00:0000:00:0000:00:00
DL9RDZ-12026-09-01 23:32:1164.07594-22.3608763°97km/h10173m5.6m/s-56.8°C63.9%0hPa0V00:00:0000:00:0000:00:00
DL9RDZ-12026-09-01 23:32:0164.07480-22.3660865°102km/h10121m6.1m/s-57.6°C74.2%0hPa0V00:00:0000:00:0000:00:00
DL9RDZ-12026-09-01 23:31:5164.07359-22.3707764°86km/h10063m6.6m/s-57.7°C68.8%0hPa0V00:00:0000:00:0000:00:00
DL9RDZ-12026-09-01 23:31:4064.07245-22.3754561°84km/h10012m4.9m/s-57.7°C71.0%0hPa0V00:00:0000:00:0000:00:00
DL9RDZ-12026-09-01 23:31:2964.07135-22.3800859°82km/h9961m5.7m/s-57.7°C71.8%0hPa0V00:00:0000:00:0000:00:00
DL9RDZ-12026-09-01 23:31:1864.07014-22.3842056°77km/h9909m3.4m/s-57.4°C70.6%0hPa0V00:00:0000:00:0000:00:00
DL9RDZ-12026-09-01 23:31:0764.06904-22.3883162°77km/h9861m3.6m/s-56.9°C70.1%0hPa0V00:00:0000:00:0000:00:00
DL9RDZ-12026-09-01 23:30:5764.06806-22.3921261°73km/h9813m3.8m/s-56.4°C66.3%0hPa0V00:00:0000:00:0000:00:00
DL9RDZ-12026-09-01 23:30:4664.06697-22.3962260°82km/h9760m4.7m/s-56.0°C64.3%0hPa0V00:00:0000:00:0000:00:00
DL9RDZ-12026-09-01 23:30:2464.06480-22.4046758°77km/h9665m4.9m/s-55.8°C69.3%0hPa0V00:00:0000:00:0000:00:00
DL9RDZ-12026-09-01 23:30:1664.06382-22.4084661°77km/h9623m4.9m/s-55.5°C70.2%0hPa0V00:00:0000:00:0000:00:00
DL9RDZ-12026-09-01 23:30:0364.06281-22.4126264°73km/h9573m2.7m/s-55.1°C68.7%0hPa0V00:00:0000:00:0000:00:00
DL9RDZ-12026-09-01 23:29:5064.06158-22.4175765°84km/h9508m4.1m/s-54.6°C75.1%0hPa0V00:00:0000:00:0000:00:00
DL9RDZ-12026-09-01 23:29:4064.06073-22.4212963°69km/h9448m6.3m/s-54.2°C76.6%0hPa0V00:00:0000:00:0000:00:00
DL9RDZ-12026-09-01 23:29:2964.05971-22.4248058°71km/h9383m2.8m/s-53.6°C73.5%0hPa0V00:00:0000:00:0000:00:00
DL9RDZ-12026-09-01 23:29:1864.05875-22.4285659°62km/h9332m4.4m/s-53.1°C72.6%0hPa0V00:00:0000:00:0000:00:00
DL9RDZ-12026-09-01 23:29:0864.05797-22.4317960°66km/h9287m3.2m/s-52.7°C72.2%0hPa0V00:00:0000:00:0000:00:00
DL9RDZ-12026-09-01 23:28:5764.05705-22.4352764°62km/h9236m3.4m/s-52.2°C76.0%0hPa0V00:00:0000:00:0000:00:00
DL9RDZ-12026-09-01 23:28:4764.05623-22.4385059°62km/h9177m4.2m/s-51.7°C72.8%0hPa0V00:00:0000:00:0000:00:00
DL9RDZ-12026-09-01 23:28:3664.05535-22.4420258°64km/h9120m5.0m/s-51.2°C77.2%0hPa0V00:00:0000:00:0000:00:00
DL9RDZ-12026-09-01 23:28:2664.05452-22.4450161°64km/h9076m5.9m/s-50.8°C77.3%0hPa0V00:00:0000:00:0000:00:00
DL9RDZ-12026-09-01 23:27:5564.05193-22.4548163°66km/h8942m3.2m/s-49.5°C76.7%0hPa0V00:00:0000:00:0000:00:00
DL9RDZ-12026-09-01 23:27:4564.05109-22.4580062°66km/h8898m3.2m/s-49.1°C76.2%0hPa0V00:00:0000:00:0000:00:00
DL9RDZ-12026-09-01 23:27:3464.05022-22.4614861°64km/h8848m5.1m/s-48.6°C76.6%0hPa0V00:00:0000:00:0000:00:00
DL9RDZ-12026-09-01 23:27:2364.04932-22.4651161°60km/h8800m5.8m/s-48.2°C74.1%0hPa0V00:00:0000:00:0000:00:00
DL9RDZ-12026-09-01 23:27:1364.04849-22.4683158°68km/h8752m5.1m/s-47.7°C73.5%0hPa0V00:00:0000:00:0000:00:00
DL9RDZ-12026-09-01 23:27:0264.04755-22.4717457°66km/h8706m4.5m/s-47.3°C73.0%0hPa0V00:00:0000:00:0000:00:00
DL9RDZ-12026-09-01 23:26:5264.04669-22.4749359°64km/h8661m5.2m/s-46.9°C75.7%0hPa0V00:00:0000:00:0000:00:00
DL9RDZ-12026-09-01 23:26:4264.04577-22.4783456°60km/h8613m5.7m/s-46.4°C77.5%0hPa0V00:00:0000:00:0000:00:00
DL9RDZ-12026-09-01 23:26:3064.04484-22.4817358°60km/h8561m4.7m/s-45.9°C79.6%0hPa0V00:00:0000:00:0000:00:00
DL9RDZ-12026-09-01 23:26:1964.04397-22.4849661°64km/h8515m3.4m/s-45.5°C79.6%0hPa0V00:00:0000:00:0000:00:00
DL9RDZ-12026-09-01 23:26:0864.04298-22.4881956°64km/h8461m4.1m/s-45.0°C76.0%0hPa0V00:00:0000:00:0000:00:00
DL9RDZ-12026-09-01 23:25:5864.04210-22.4911752°64km/h8417m6.1m/s-44.5°C76.0%0hPa0V00:00:0000:00:0000:00:00
DL9RDZ-12026-09-01 23:25:4764.04109-22.4943753°60km/h8362m9.1m/s-44.0°C76.0%0hPa0V00:00:0000:00:0000:00:00
DL9RDZ-12026-09-01 23:25:3664.04007-22.4975155°60km/h8291m3.8m/s-43.5°C75.7%0hPa0V00:00:0000:00:0000:00:00
DL9RDZ-12026-09-01 23:25:2564.03909-22.5008260°64km/h8231m6.7m/s-42.9°C73.1%0hPa0V00:00:0000:00:0000:00:00
DL9RDZ-12026-09-01 23:25:1264.03805-22.5048361°62km/h8157m3.4m/s-42.3°C73.1%0hPa0V00:00:0000:00:0000:00:00
DL9RDZ-12026-09-01 23:24:5964.03697-22.5089757°71km/h8094m4.8m/s-41.7°C71.7%0hPa0V00:00:0000:00:0000:00:00
DL9RDZ-12026-09-01 23:24:4864.03609-22.5123161°57km/h8031m3.9m/s-41.2°C69.7%0hPa0V00:00:0000:00:0000:00:00
DL9RDZ-12026-09-01 23:24:3764.03521-22.5154763°58km/h7980m3.8m/s-40.7°C70.4%0hPa0V00:00:0000:00:0000:00:00
DL9RDZ-12026-09-01 23:24:2664.03433-22.5186856°55km/h7929m6.0m/s-40.2°C69.9%0hPa0V00:00:0000:00:0000:00:00
DL9RDZ-12026-09-01 23:24:1664.03344-22.5217655°64km/h7870m6.7m/s-39.7°C70.2%0hPa0V00:00:0000:00:0000:00:00
DL9RDZ-12026-09-01 23:24:0464.03250-22.5250065°58km/h7802m4.9m/s-39.2°C68.9%0hPa0V00:00:0000:00:0000:00:00
DL9RDZ-12026-09-01 23:23:5464.03173-22.5281565°66km/h7750m5.7m/s-38.7°C71.5%0hPa0V00:00:0000:00:0000:00:00
DL9RDZ-12026-09-01 23:23:4464.03091-22.5312157°66km/h7685m7.1m/s-38.2°C72.1%0hPa0V00:00:0000:00:0000:00:00
DL9RDZ-12026-09-01 23:23:3364.02998-22.5342347°62km/h7618m5.5m/s-37.7°C72.4%0hPa0V00:00:0000:00:0000:00:00
DL9RDZ-12026-09-01 23:23:2264.02892-22.5374051°60km/h7556m4.5m/s-37.3°C72.1%0hPa0V00:00:0000:00:0000:00:00
DL9RDZ-12026-09-01 23:23:1264.02793-22.5401150°68km/h7504m5.4m/s-37.0°C71.4%0hPa0V00:00:0000:00:0000:00:00
DL9RDZ-12026-09-01 23:23:0264.02675-22.5430047°66km/h7434m7.6m/s-36.5°C70.2%0hPa0V00:00:0000:00:0000:00:00
DL9RDZ-12026-09-01 23:22:5064.02562-22.5456253°55km/h7369m6.8m/s-35.9°C68.8%0hPa0V00:00:0000:00:0000:00:00
DL9RDZ-12026-09-01 23:22:4064.02462-22.5477343°53km/h7305m6.4m/s-35.4°C66.6%0hPa0V00:00:0000:00:0000:00:00
DL9RDZ-12026-09-01 23:22:3064.02364-22.5498344°51km/h7255m4.5m/s-35.3°C67.7%0hPa0V00:00:0000:00:0000:00:00
DL9RDZ-12026-09-01 23:22:1964.02267-22.5519946°47km/h7205m4.3m/s-34.9°C70.0%0hPa0V00:00:0000:00:0000:00:00
DL9RDZ-12026-09-01 23:22:0964.02171-22.5538141°42km/h7148m7.7m/s-34.7°C71.1%0hPa0V00:00:0000:00:0000:00:00
DL9RDZ-12026-09-01 23:21:5764.02084-22.5556337°47km/h7076m8.2m/s-34.2°C70.6%0hPa0V00:00:0000:00:0000:00:00
DL9RDZ-12026-09-01 23:21:4664.01990-22.5577348°46km/h7014m7.3m/s-34.0°C63.9%0hPa0V00:00:0000:00:0000:00:00
DL9RDZ-12026-09-01 23:21:3564.01886-22.5598636°51km/h6943m4.9m/s-33.5°C72.1%0hPa0V00:00:0000:00:0000:00:00
DL9RDZ-12026-09-01 23:21:2464.01784-22.5616241°37km/h6877m6.5m/s-33.1°C72.0%0hPa0V00:00:0000:00:0000:00:00
DL9RDZ-12026-09-01 23:21:1364.01689-22.5633930°47km/h6802m5.5m/s-32.6°C69.3%0hPa0V00:00:0000:00:0000:00:00
DL9RDZ-12026-09-01 23:21:0364.01601-22.5651533°40km/h6735m8.2m/s-32.1°C69.2%0hPa0V00:00:0000:00:0000:00:00
DL9RDZ-12026-09-01 23:20:5264.01509-22.5666938°44km/h6670m7.6m/s-31.6°C70.8%0hPa0V00:00:0000:00:0000:00:00
DL9RDZ-12026-09-01 23:20:4264.01433-22.5684435°42km/h6610m5.9m/s-31.1°C69.3%0hPa0V00:00:0000:00:0000:00:00
DL9RDZ-12026-09-01 23:20:3264.01362-22.5700249°46km/h6563m3.8m/s-30.8°C72.2%0hPa0V00:00:0000:00:0000:00:00
DL9RDZ-12026-09-01 23:20:2164.01277-22.5719039°49km/h6494m5.9m/s-30.2°C72.8%0hPa0V00:00:0000:00:0000:00:00
DL9RDZ-12026-09-01 23:20:1164.01193-22.5734949°37km/h6435m7.3m/s-29.7°C72.7%0hPa0V00:00:0000:00:0000:00:00
DL9RDZ-12026-09-01 23:20:0064.01117-22.5752755°37km/h6371m6.0m/s-29.2°C77.1%0hPa0V00:00:0000:00:0000:00:00
DL9RDZ-12026-09-01 23:19:5064.01035-22.5764847°33km/h6297m5.6m/s-28.6°C78.3%0hPa0V00:00:0000:00:0000:00:00
DL9RDZ-12026-09-01 23:19:4064.00959-22.5776438°33km/h6240m7.0m/s-28.2°C79.4%0hPa0V00:00:0000:00:0000:00:00
DL9RDZ-12026-09-01 23:19:2964.00893-22.5788755°27km/h6176m5.2m/s-28.0°C68.6%0hPa0V00:00:0000:00:0000:00:00
DL9RDZ-12026-09-01 23:19:1964.00830-22.5801728°40km/h6120m5.6m/s-27.6°C65.7%0hPa0V00:00:0000:00:0000:00:00
DL9RDZ-12026-09-01 23:19:0964.00756-22.5813629°33km/h6049m8.6m/s-27.1°C62.9%0hPa0V00:00:0000:00:0000:00:00
DL9RDZ-12026-09-01 23:18:5564.00661-22.5831244°33km/h5962m5.6m/s-26.5°C85.3%0hPa0V00:00:0000:00:0000:00:00
DL9RDZ-12026-09-01 23:18:4464.00579-22.5845336°38km/h5917m3.9m/s-26.1°C83.9%0hPa0V00:00:0000:00:0000:00:00
DL9RDZ-12026-09-01 23:18:3464.00516-22.5857145°37km/h5850m5.3m/s-25.6°C88.1%0hPa0V00:00:0000:00:0000:00:00
DL9RDZ-12026-09-01 23:18:2364.00429-22.5871644°31km/h5796m6.8m/s-25.2°C86.1%0hPa0V00:00:0000:00:0000:00:00
DL9RDZ-12026-09-01 23:18:1364.00380-22.5885440°29km/h5742m5.8m/s-24.7°C83.0%0hPa0V00:00:0000:00:0000:00:00
DL9RDZ-12026-09-01 23:18:0364.00314-22.5895149°29km/h5673m6.4m/s-24.0°C80.8%0hPa0V00:00:0000:00:0000:00:00
DL9RDZ-12026-09-01 23:17:5264.00248-22.5906938°27km/h5616m9.4m/s-23.6°C82.5%0hPa0V00:00:0000:00:0000:00:00
DL9RDZ-12026-09-01 23:17:4164.00188-22.5919350°27km/h5556m6.0m/s-23.2°C83.2%0hPa0V00:00:0000:00:0000:00:00
DL9RDZ-12026-09-01 23:17:3064.00114-22.5931729°26km/h5498m6.1m/s-22.8°C80.1%0hPa0V00:00:0000:00:0000:00:00
DL9RDZ-12026-09-01 23:17:2064.00062-22.5941038°33km/h5435m6.2m/s-22.2°C74.0%0hPa0V00:00:0000:00:0000:00:00
DL9RDZ-12026-09-01 23:17:1064.00008-22.5950846°26km/h5373m3.1m/s-21.7°C64.7%0hPa0V00:00:0000:00:0000:00:00
DL9RDZ-12026-09-01 23:17:0063.99962-22.5964231°31km/h5325m5.8m/s-21.5°C70.9%0hPa0V00:00:0000:00:0000:00:00
DL9RDZ-12026-09-01 23:16:4963.99893-22.5974926°31km/h5271m4.1m/s-21.2°C75.0%0hPa0V00:00:0000:00:0000:00:00
DL9RDZ-12026-09-01 23:16:3863.99842-22.5987446°31km/h5221m6.4m/s-21.0°C51.4%0hPa0V00:00:0000:00:0000:00:00
DL9RDZ-12026-09-01 23:16:2863.99779-22.5994034°20km/h5156m7.0m/s-20.5°C50.3%0hPa0V00:00:0000:00:0000:00:00
DL9RDZ-12026-09-01 23:16:1863.99729-22.6002441°18km/h5108m4.6m/s-20.2°C49.0%0hPa0V00:00:0000:00:0000:00:00
DL9RDZ-12026-09-01 23:16:0763.99658-22.6007717°29km/h5044m3.5m/s-19.7°C45.5%0hPa0V00:00:0000:00:0000:00:00
DL9RDZ-12026-09-01 23:15:5763.99595-22.6012722°42km/h4996m5.3m/s-19.4°C48.1%0hPa0V00:00:0000:00:0000:00:00
DL9RDZ-12026-09-01 23:15:4663.99521-22.6020836°26km/h4923m4.2m/s-18.9°C49.7%0hPa0V00:00:0000:00:0000:00:00
DL9RDZ-12026-09-01 23:15:3663.99434-22.6028422°33km/h4868m7.2m/s-18.5°C31.0%0hPa0V00:00:0000:00:0000:00:00
DL9RDZ-12026-09-01 23:15:1563.99280-22.6041215°31km/h4745m4.9m/s-17.5°C43.5%0hPa0V00:00:0000:00:0000:00:00
DL9RDZ-12026-09-01 23:15:0463.99204-22.6045221°40km/h4692m5.2m/s-17.2°C39.5%0hPa0V00:00:0000:00:0000:00:00
DL9RDZ-12026-09-01 23:14:5363.99130-22.6053230°27km/h4623m5.6m/s-16.9°C21.2%0hPa0V00:00:0000:00:0000:00:00
DL9RDZ-12026-09-01 23:14:4263.99067-22.6056635km/h4560m5.2m/s-16.7°C36.4%0hPa0V00:00:0000:00:0000:00:00
DL9RDZ-12026-09-01 23:14:3163.98987-22.60557355°29km/h4503m4.2m/s-16.4°C37.4%0hPa0V00:00:0000:00:0000:00:00
DL9RDZ-12026-09-01 23:14:2163.98901-22.6054318°26km/h4455m5.8m/s-16.1°C26.0%0hPa0V00:00:0000:00:0000:00:00
DL9RDZ-12026-09-01 23:14:1163.98848-22.6053512°24km/h4387m4.6m/s-15.7°C43.1%0hPa0V00:00:0000:00:0000:00:00
DL9RDZ-12026-09-01 23:14:0163.98769-22.60536344°31km/h4330m4.3m/s-15.4°C41.8%0hPa0V00:00:0000:00:0000:00:00
DL9RDZ-12026-09-01 23:13:5063.98698-22.60468344°37km/h4273m6.9m/s-15.0°C45.9%0hPa0V00:00:0000:00:0000:00:00
DL9RDZ-12026-09-01 23:13:4063.98625-22.6043722km/h4212m3.2m/s-14.6°C40.7%0hPa0V00:00:0000:00:0000:00:00
DL9RDZ-12026-09-01 23:13:2963.98554-22.60409352°38km/h4155m5.8m/s-14.4°C43.7%0hPa0V00:00:0000:00:0000:00:00
DL9RDZ-12026-09-01 23:13:1863.98476-22.60361341°31km/h4095m3.9m/s-14.0°C37.5%0hPa0V00:00:0000:00:0000:00:00
DL9RDZ-12026-09-01 23:13:0863.98406-22.6031035km/h4035m9.2m/s-13.7°C45.8%0hPa0V00:00:0000:00:0000:00:00
DL9RDZ-12026-09-01 23:12:5863.98357-22.60327332°22km/h3972m7.6m/s-13.7°C49.5%0hPa0V00:00:0000:00:0000:00:00
DL9RDZ-12026-09-01 23:12:4863.98305-22.60291334°26km/h3914m7.6m/s-13.3°C46.9%0hPa0V00:00:0000:00:0000:00:00
DL9RDZ-12026-09-01 23:12:3763.98253-22.60256325°27km/h3845m3.5m/s-13.1°C51.2%0hPa0V00:00:0000:00:0000:00:00
DL9RDZ-12026-09-01 23:12:2663.98212-22.6021520°9km/h3790m8.1m/s-13.1°C56.0%0hPa0V00:00:0000:00:0000:00:00
DL9RDZ-12026-09-01 23:12:1663.98177-22.60150322°26km/h3727m6.0m/s-12.8°C60.2%0hPa0V00:00:0000:00:0000:00:00
DL9RDZ-12026-09-01 23:12:0563.98132-22.60136309°9km/h3661m6.9m/s-12.5°C59.6%0hPa0V00:00:0000:00:0000:00:00
DL9RDZ-12026-09-01 23:11:5463.98081-22.6014818km/h3598m5.0m/s-11.9°C57.8%0hPa0V00:00:0000:00:0000:00:00
DL9RDZ-12026-09-01 23:11:4463.98036-22.60104333°15km/h3550m6.9m/s-11.7°C56.3%0hPa0V00:00:0000:00:0000:00:00
DL9RDZ-12026-09-01 23:11:3363.98002-22.6010126°20km/h3486m5.7m/s-11.3°C49.5%0hPa0V00:00:0000:00:0000:00:00
DL9RDZ-12026-09-01 23:11:2363.97974-22.6014861°11km/h3432m2.5m/s-10.8°C51.2%0hPa0V00:00:0000:00:0000:00:00
DL9RDZ-12026-09-01 23:11:1263.97948-22.6018448°20km/h3363m4.7m/s-10.3°C48.2%0hPa0V00:00:0000:00:0000:00:00
DL9RDZ-12026-09-01 23:11:0263.97915-22.6020216°16km/h3317m5.5m/s-10.1°C45.8%0hPa0V00:00:0000:00:0000:00:00
DL9RDZ-12026-09-01 23:10:5163.97888-22.6027723°13km/h3254m8.9m/s-9.9°C53.7%0hPa0V00:00:0000:00:0000:00:00
DL9RDZ-12026-09-01 23:10:4063.97864-22.6032630°20km/h3195m6.4m/s-9.9°C63.1%0hPa0V00:00:0000:00:0000:00:00
DL9RDZ-12026-09-01 23:10:3063.97837-22.6036232°18km/h3136m7.9m/s-9.7°C63.4%0hPa0V00:00:0000:00:0000:00:00
DL9RDZ-12026-09-01 23:10:1963.97811-22.60414336°11km/h3082m5.8m/s-9.3°C62.6%0hPa0V00:00:0000:00:0000:00:00
DL9RDZ-12026-09-01 23:10:0963.97796-22.60383318°9km/h3026m3.7m/s-8.9°C64.1%0hPa0V00:00:0000:00:0000:00:00
DL9RDZ-12026-09-01 23:09:5863.97775-22.6039134°11km/h2976m4.5m/s-8.5°C59.4%0hPa0V00:00:0000:00:0000:00:00
DL9RDZ-12026-09-01 23:09:4863.97752-22.60395359°18km/h2922m7.2m/s-8.2°C52.0%0hPa0V00:00:0000:00:0000:00:00
DL9RDZ-12026-09-01 23:09:3763.97742-22.6043440°11km/h2866m5.8m/s-8.0°C55.6%0hPa0V00:00:0000:00:0000:00:00
DL9RDZ-12026-09-01 23:09:2763.97698-22.60442337°13km/h2812m4.9m/s-7.9°C56.8%0hPa0V00:00:0000:00:0000:00:00
DL9RDZ-12026-09-01 23:09:1663.97658-22.6046358°11km/h2756m6.3m/s-7.8°C64.1%0hPa0V00:00:0000:00:0000:00:00
DL9RDZ-12026-09-01 23:09:0663.97655-22.60486339°11km/h2698m5.7m/s-7.5°C63.9%0hPa0V00:00:0000:00:0000:00:00
DL9RDZ-12026-09-01 23:08:5563.97629-22.60512187°4km/h2638m6.1m/s-7.1°C63.4%0hPa0V00:00:0000:00:0000:00:00
DL9RDZ-12026-09-01 23:08:4463.97612-22.60553357°7km/h2586m7.2m/s-6.7°C64.8%0hPa0V00:00:0000:00:0000:00:00
DL9RDZ-12026-09-01 23:08:3363.97586-22.6057020km/h2523m4.8m/s-6.2°C63.1%0hPa0V00:00:0000:00:0000:00:00
DL9RDZ-12026-09-01 23:08:2263.97574-22.60620106°13km/h2459m7.8m/s-5.7°C63.8%0hPa0V00:00:0000:00:0000:00:00
DL9RDZ-12026-09-01 23:08:1263.97565-22.6069388°9km/h2396m5.0m/s-5.4°C59.1%0hPa0V00:00:0000:00:0000:00:00
DL9RDZ-12026-09-01 23:08:0163.97542-22.6071313°9km/h2340m4.4m/s-4.9°C56.4%0hPa0V00:00:0000:00:0000:00:00
DL9RDZ-12026-09-01 23:07:5063.97520-22.6076760°9km/h2282m4.2m/s-4.4°C58.4%0hPa0V00:00:0000:00:0000:00:00
DL9RDZ-12026-09-01 23:07:3963.97503-22.6083629°11km/h2219m5.5m/s-3.9°C57.2%0hPa0V00:00:0000:00:0000:00:00
DL9RDZ-12026-09-01 23:07:2863.97497-22.6088655°20km/h2153m5.5m/s-3.5°C59.7%0hPa0V00:00:0000:00:0000:00:00
DL9RDZ-12026-09-01 23:07:1963.97473-22.6098375°18km/h2095m3.3m/s-3.1°C62.5%0hPa0V00:00:0000:00:0000:00:00
DL9RDZ-12026-09-01 23:07:0763.97446-22.6104056°13km/h2030m6.0m/s-2.6°C53.3%0hPa0V00:00:0000:00:0000:00:00
DL9RDZ-12026-09-01 23:06:5663.97427-22.6111545°16km/h1974m5.2m/s-2.5°C63.3%0hPa0V00:00:0000:00:0000:00:00
DL9RDZ-12026-09-01 23:06:3463.97404-22.6124982°18km/h1847m6.8m/s-1.8°C0%0hPa0V00:00:0000:00:0000:00:00
DL9RDZ-12026-09-01 23:06:2463.97391-22.61272141°9km/h1802m5.8m/s-1.4°C0%0hPa0V00:00:0000:00:0000:00:00
DL9RDZ-12026-09-01 23:06:1363.97393-22.61345154°7km/h1744m4.7m/s-1.0°C0%0hPa0V00:00:0000:00:0000:00:00
DL9RDZ-12026-09-01 23:06:0363.97377-22.6137484°20km/h1696m6.0m/s0°C0%0hPa0V00:00:0000:00:0000:00:00
DL9RDZ-12026-09-01 23:05:5263.97367-22.61426199°5km/h1644m4.5m/s0°C0%0hPa0V00:00:0000:00:0000:00:00
DL9RDZ-12026-09-01 23:04:5463.97357-22.6150996°11km/h1329m4.6m/s0°C0%0hPa0V00:00:0000:00:0000:00:00
DL9RDZ-12026-09-01 23:04:4463.97347-22.615219km/h1283m5.4m/s0°C0%0hPa0V00:00:0000:00:0000:00:00
DL9RDZ-12026-09-01 23:04:3163.97343-22.61537116°7km/h1214m7.2m/s0°C0%0hPa0V00:00:0000:00:0000:00:00
DL9RDZ-12026-09-01 23:04:2163.97345-22.61537357°7km/h1154m7.3m/s0°C0%0hPa0V00:00:0000:00:0000:00:00
DL9RDZ-12026-09-01 23:04:1063.97315-22.615470km/h1092m4.0m/s0°C0%0hPa0V00:00:0000:00:0000:00:00


GPX KML Map

© wettersonde.net (DO2JMG) - 2026  -  -